Lexington, KY

5:13 PM EDT on May 23, 2018 (GMT -0400)
Blue Grass

Weather History for KLEX - March, 2015

Change the Weather History Date:

Sunday, March 15, 2015

  Actual Average Record
Temperature  
Mean Temperature 53 °F 45 °F  
Max Temperature 65 °F 55 °F 81 °F (1944)
Min Temperature 40 °F 35 °F 11 °F (1993)
Degree Days  
Heating Degree Days 12 20  
Month to date heating degree days 356 330  
Since 1 July heating degree days 4334 3901  
Cooling Degree Days 0 0  
Month to date cooling degree days 0 0  
Year to date cooling degree days 0 0  
Growing Degree Days 2 (Base 50)    
Moisture  
Dew Point 38 °F    
Average Humidity 65    
Maximum Humidity 93    
Minimum Humidity 36    
Precipitation  
Precipitation 0.00 in 0.13 in 1.75 in (1948)
Month to date precipitation 6.95 1.91  
Year to date precipitation 11.80 8.31  
Snow  
Snow 0.00 in 0.00 in 4.80 in (1896)
Month to date snowfall 17.1 0.8  
Since 1 July snowfall 40.0 12.1  
Snow Depth 0.00 in    
Sea Level Pressure  
Sea Level Pressure 30.23 in    
Wind  
Wind Speed 6 mph (WSW)    
Max Wind Speed 12 mph    
Max Gust Speed 15 mph    
Visibility 10 miles    
Events      
T = Trace of Precipitation, MM = Missing Value Source: NWS Daily Summary

Daily Weather History Graph

Daily Weather History Graph

Search for Another Location

Airport or City:

Astronomy

Mar. 15, 2015 Rise Set
Actual Time 7:49 AM EDT 7:45 PM EDT
Civil Twilight 7:23 AM EDT 8:11 PM EDT
Nautical Twilight 6:53 AM EDT 8:42 PM EDT
Astronomical Twilight 6:22 AM EDT 9:13 PM EDT
Moon 4:06 AM EDT (3/15) 2:37 PM EDT (3/15)
Length of Visible Light 12h 47m
Length of Day
11h 55m
Waning Crescent, 29% of the Moon is Illuminated
Mar 15
Waning Crescent
Mar 20
New
Mar 27
First Quarter
Apr 4
Full
Apr 11
Last Quarter

Hourly Weather History & Observations

Time (EDT) Temp. Windchill Dew Point Humidity Pressure Visibility Wind Dir Wind Speed Gust Speed Precip Events Conditions
12:54 AM 48.9 °F - 41.0 °F 74% 30.15 in 10.0 mi NW 3.5 mph - N/A   Clear
1:54 AM 46.9 °F - 39.9 °F 77% 30.17 in 10.0 mi West 4.6 mph - N/A   Clear
2:54 AM 46.0 °F 44.8 °F 39.0 °F 76% 30.19 in 10.0 mi WSW 3.5 mph - N/A   Clear
3:54 AM 44.1 °F 42.5 °F 39.0 °F 82% 30.19 in 10.0 mi WSW 3.5 mph - N/A   Clear
4:54 AM 44.1 °F 41.5 °F 37.9 °F 79% 30.19 in 10.0 mi West 4.6 mph - N/A   Clear
5:54 AM 43.0 °F - 37.9 °F 82% 30.20 in 10.0 mi Calm Calm - N/A   Clear
6:54 AM 41.0 °F 39.0 °F 37.9 °F 89% 30.24 in 10.0 mi West 3.5 mph - N/A   Clear
7:54 AM 41.0 °F 39.0 °F 37.9 °F 89% 30.26 in 10.0 mi WSW 3.5 mph - N/A   Clear
8:54 AM 41.0 °F 38.0 °F 39.0 °F 93% 30.27 in 10.0 mi SSW 4.6 mph - N/A   Clear
9:54 AM 48.9 °F - 42.1 °F 77% 30.29 in 10.0 mi West 4.6 mph - N/A   Clear
10:54 AM 52.0 °F - 43.0 °F 71% 30.31 in 10.0 mi Variable 5.8 mph - N/A   Clear
11:54 AM 55.0 °F - 39.9 °F 57% 30.31 in 10.0 mi North 5.8 mph - N/A   Clear
12:54 PM 57.0 °F - 39.9 °F 53% 30.32 in 10.0 mi Variable 5.8 mph - N/A   Clear
1:54 PM 59.0 °F - 36.0 °F 42% 30.29 in 10.0 mi WSW 8.1 mph - N/A   Clear
2:54 PM 60.1 °F - 37.0 °F 42% 30.26 in 10.0 mi Calm Calm - N/A   Clear
3:54 PM 63.0 °F - 39.0 °F 41% 30.24 in 10.0 mi NW 10.4 mph - N/A   Clear
4:54 PM 64.0 °F - 37.0 °F 37% 30.23 in 10.0 mi West 8.1 mph - N/A   Clear
5:54 PM 64.0 °F - 37.0 °F 37% 30.23 in 10.0 mi NW 9.2 mph - N/A   Clear
6:54 PM 63.0 °F - 36.0 °F 37% 30.22 in 10.0 mi WSW 6.9 mph - N/A   Clear
7:54 PM 57.9 °F - 35.1 °F 42% 30.22 in 10.0 mi WSW 4.6 mph - N/A   Clear
8:54 PM 55.9 °F - 34.0 °F 44% 30.23 in 10.0 mi West 4.6 mph - N/A   Clear
9:54 PM 50.0 °F - 39.0 °F 66% 30.23 in 10.0 mi South 5.8 mph - N/A   Clear
10:54 PM 51.1 °F - 36.0 °F 56% 30.21 in 10.0 mi SSW 8.1 mph - N/A   Clear
11:54 PM 50.0 °F - 36.0 °F 59% 30.19 in 10.0 mi South 6.9 mph - N/A   Clear